Regional Weather Roundup
Issued by NWS Nashville, TN

Home | Current Version | Previous Version | Text Only | Print | Product List | Glossary On
Versions: 1 2 3 4 5 6 7 8 9 10 11 12 13 14 15 16 17 18 19 20 21 22 23 24 25 26 27 28 29 30 31 32 33 34 35 36 37 38 39 40 41 42 43 44 45 46 47 48 49 50
793
ASUS44 KOHX 130710
RWROHX
MIDDLE TENNESSEE HOURLY WEATHER ROUNDUP
NATIONAL WEATHER SERVICE NASHVILLE TN
100 AM CST SAT FEB 13 2016

NOTE: "FAIR" INDICATES FEW OR NO CLOUDS BELOW 12,000 FEET WITH
NO SIGNIFICANT WEATHER AND/OR OBSTRUCTIONS TO VISIBILITY.

* THESE REPORTS ARE NOT UNDER NWS QUALITY CONTROL AND MAY NOT
  REPORT WEATHER SUCH AS PRECIPITATION AND FOG.


TNZ005>011-023>034-057-059-062>066-078-080-130800
...NORTHERN MIDDLE TENNESSEE...

CITY           SKY/WX    TMP DP  RH WIND       PRES   REMARKS
CLARKSVILLE    CLEAR     23  13  65 N12       30.46R WCI  12
CROSSVILLE     CLOUDY    25  16  68 N12G23    30.26R WCI  14
DICKSON        CLEAR     21  10  63 N12       30.41R WCI   9
LEBANON        CLOUDY    27  15  60 N12       30.37R WCI  17
LIVINGSTON     CLOUDY    24  12  60 NW9       30.31  WCI  14
NASHVILLE      PTCLDY    26  12  55 NW10G20   30.42R WCI  16
PORTLAND       CLEAR    N/A N/A N/A N8        30.39R
ROCKWOOD       CLOUDY    25  19  77 N8        30.24  WCI  16
SMYRNA         CLOUDY    26  15  63 N16       30.42R WCI  14
SPARTA         PTCLDY    25  12  58 VRB7      30.32R WCI  17
$$
TNZ056-058-060-061-075>077-079-093>097-130800
...SOUTHERN MIDDLE TENNESSEE...

CITY           SKY/WX    TMP DP  RH WIND       PRES   REMARKS
COLUMBIA       CLEAR     27  19  74 N9        30.38R WCI  17
FAYETTEVILLE   MOCLDY    30  21  69 N12G21    30.34R WCI  21
LEWISBURG      CLEAR     28  20  72 N10       30.38R WCI  19
MCMINNVILLE    CLEAR     27  16  63 N8        30.34R WCI  18
SHELBYVILLE    CLEAR     28  19  69 N14       30.38R WCI  17
TULLAHOMA      CLEAR     25  19  80 N13       30.34R WCI  13
WINCHESTER     CLEAR     27  18  69 N8        30.33R WCI  18
$$


...KEY TO REMARKS...
VSB - VISIBILITY IN MILES
WCI - WIND CHILL INDEX
HX  - HEAT INDEX





USA.gov is the U.S. government's official web portal to all federal, state and local government web resources and services.